This is the latest recevied weather packets stored in our database for station/object N0KWA. If no packets are shown the sender has not sent any weather packets the latest 10 day(s).
| Time | Temp. | Humidity | Pressure | Rain* | Wind** | Luminosity | Snow |
|---|---|---|---|---|---|---|---|
| 1787827044 | 22.22° C | 99% | 1016.3 hPa | 1.78 mm | - | 0 W/m² | - |
| 1787826739 | 22.22° C | 99% | 1016 hPa | 0 mm | - | 0 W/m² | - |
| 1787826434 | 22.22° C | 99% | 1015.8 hPa | 1.78 mm | - | 0 W/m² | - |
| 1787826131 | 22.22° C | 99% | 1015.7 hPa | 1.78 mm | - | 0 W/m² | - |
| 1787825829 | 22.22° C | 99% | 1015.6 hPa | 0 mm | - | 0 W/m² | - |
| 1787825528 | 22.22° C | 99% | 1015.6 hPa | 0 mm | - | 0 W/m² | - |
| 1787825224 | 22.22° C | 99% | 1015.8 hPa | 0 mm | - | 0 W/m² | - |
| 1787824921 | 22.22° C | 99% | 1015.6 hPa | 0 mm | - | 0 W/m² | - |
| 1787824619 | 22.22° C | 99% | 1015.7 hPa | 0 mm | - | 0 W/m² | - |
| 1787824314 | 22.22° C | 99% | 1015.6 hPa | 0 mm | - | 0 W/m² | - |
| 1787824010 | 22.22° C | 99% | 1015.7 hPa | 0 mm | - | 0 W/m² | - |
| 1787823704 | 22.22° C | 99% | 1015.8 hPa | 0 mm | - | 0 W/m² | - |
| 1787823398 | 21.67° C | 99% | 1016 hPa | 0 mm | - | 0 W/m² | - |
| 1787823093 | 21.67° C | 99% | 1016.2 hPa | 0 mm | - | 0 W/m² | - |
| 1787822787 | 22.22° C | 99% | 1016.4 hPa | 0 mm | - | 0 W/m² | - |
| 1787822482 | 22.22° C | 99% | 1016.3 hPa | 0 mm | - | 0 W/m² | - |
| 1787822176 | 22.22° C | 99% | 1016.3 hPa | 1.27 mm | - | 0 W/m² | - |
| 1787821874 | 22.22° C | 99% | 1016.4 hPa | 1.27 mm | - | 0 W/m² | - |
| 1787821570 | 22.78° C | 99% | 1016.3 hPa | 0 mm | - | 0 W/m² | - |
| 1787821266 | 22.78° C | 99% | 1016.4 hPa | 3.05 mm | - | 0 W/m² | - |
| 1787820960 | 22.78° C | 99% | 1017.3 hPa | 3.05 mm | - | 0 W/m² | - |
| 1787820659 | 22.78° C | 99% | 1017.7 hPa | 1.27 mm | - | 0 W/m² | - |
| 1787820355 | 22.78° C | 99% | 1017.6 hPa | 0 mm | - | 0 W/m² | - |
| 1787820051 | 23.33° C | 99% | 1017.4 hPa | 0 mm | - | 0 W/m² | - |
| 1787819746 | 23.33° C | 99% | 1017.3 hPa | 0 mm | - | 0 W/m² | - |
* Rain latest hour (hover to see other rain measurements)
** Current wind speed in m/s (hover to see current wind gust speed)